Flag for Papua New Guinea Weather past 2 weeks in Port Moresby, Papua New Guinea

Now
77 °F

Partly cloudy.


Feels Like: 78 °F
Forecast: 74 / 85 °F
Wind: No wind

Location: Moresby

Current Time: May 23, 2015 at 2:34:32 AM

Latest Report: May 23, 2015 at 1:00 AM


Visibility: N/A

Pressure: 29.89 "Hg

Humidity: 94%

Dew point: 75 °F

Location of Port MoresbyLocation

Historic Weather in Port Moresby — Graph

°F

Port Moresby temperature yesterday

Maximum temperature yesterday: 86 °F (at 1:00 PM)
Minimum temperature yesterday: 75 °F (at 1:00 AM)
Average temperature yesterday: 79 °F

Past Weeks' High & Low Weather Summary

 TemperatureHumidityPressure
High88 °F (May 18, 11:00 AM)100% (May 8, 4:00 AM)29.95 "Hg (May 8, 4:00 AM)
Low70 °F (May 21, 6:00 AM)55% (May 8, 10:00 AM)29.77 "Hg (May 8, 3:00 PM)
Average79 °F83%29.86 "Hg
* Reported May 8 1:00 AM — May 23 1:00 AM, Port Moresby, Weather by CustomWeather, © 2015

Note: Actual official high and low records may vary slightly from our data, if they occured in-between our weather recording intervals... More about our weather records

Advertising

Port Moresby weather history for previous 24 hours

 ConditionsComfort  
Time TempWeatherWind HumidityBarometerVisibility
1:00 AM
Sat, May 23
77 °FPartly cloudy.No wind94%29.89 "HgN/A
12:00 AM77 °FPassing clouds.No wind94%29.92 "HgN/A
11:00 PM
Fri, May 22
77 °FPassing clouds.No wind94%29.92 "HgN/A
10:00 PM79 °FPassing clouds.No wind89%29.95 "HgN/A
8:00 PM79 °FPassing clouds.No wind89%29.92 "HgN/A
7:00 PM79 °FPassing clouds.3 mph89%29.89 "HgN/A
6:00 PM79 °FPassing clouds.3 mph89%29.89 "HgN/A
5:00 PM81 °FBroken clouds.6 mph84%29.86 "HgN/A
4:00 PM84 °FBroken clouds.6 mph70%29.86 "HgN/A
3:00 PM82 °FBroken clouds.9 mph79%29.86 "HgN/A
1:00 PM86 °FPartly sunny.3 mph62%29.89 "HgN/A
12:00 PM84 °FPassing clouds.3 mph74%29.92 "HgN/A
11:00 AM84 °FPassing clouds.3 mph66%29.95 "HgN/A
10:00 AM84 °FPartly sunny.2 mph66%29.95 "HgN/A
9:00 AM81 °FScattered clouds.2 mph79%29.95 "HgN/A
8:00 AM79 °FScattered clouds.No wind89%29.95 "HgN/A
7:00 AM75 °FFog.No wind94%29.92 "HgN/A
6:00 AM75 °FMostly cloudy.No wind94%29.92 "HgN/A
5:00 AM75 °FMostly cloudy.No wind94%29.92 "HgN/A
4:00 AM75 °FMostly cloudy.No wind94%29.92 "HgN/A
3:00 AM75 °FMostly cloudy.No wind94%29.92 "HgN/A
Weather by CustomWeather, © 2015

See weather overviewHow to use our weather pages